QPF
0.06 0.05 0.05 0.05 0.04 0.03 0.03 0.03 0.02 0.03 0.05 0.05 0.05 0.05 0.05 0.02 0.01 0.01 0.01 0.02 0.03 0.04 0.04 0.05 0.05 0.07 0.08 0.06 0.04 0.04 0.03 0.02 0.02 0.02 0.02 0.02 0.02 0.02 0.02 0.03 0.03 0.04 0.03
0.07 0.06 0.05 0.04 0.04 0.04 0.04 0.04 0.03 0.03 0.04 0.05 0.05 0.06 0.05 0.03 0.01 0.01 0.01 0.01 0.02 0.03 0.04 0.06 0.09 0.12 0.14 0.13 0.09 0.06 0.04 0.03 0.02 0.02 0.02 0.02 0.02 0.02 0.02 0.02 0.03 0.03 0.03
0.06 0.07 0.06 0.04 0.04 0.04 0.04 0.04 0.04 0.04 0.04 0.05 0.06 0.06 0.06 0.04 0.02 0.01 0.01 0.01 0.01 0.02 0.04 0.07 0.10 0.13 0.16 0.17 0.15 0.11 0.06 0.03 0.03 0.03 0.03 0.02 0.02 0.02 0.02 0.02 0.02 0.02 0.02
0.05 0.05 0.05 0.05 0.05 0.04 0.04 0.03 0.03 0.04 0.04 0.05 0.06 0.06 0.07 0.05 0.03 0.01 0.01 0.01 0.01 0.01 0.03 0.07 0.08 0.11 0.15 0.18 0.18 0.14 0.09 0.05 0.03 0.03 0.03 0.02 0.02 0.02 0.02 0.02 0.02 0.02 0.02
0.04 0.05 0.05 0.04 0.05 0.05 0.04 0.03 0.03 0.03 0.04 0.04 0.06 0.06 0.07 0.06 0.04 0.02 0.01 0.01 0.01 0.02 0.02 0.03 0.06 0.09 0.15 0.18 0.17 0.15 0.10 0.07 0.05 0.04 0.03 0.03 0.02 0.02 0.02 0.03 0.02 0.02 0.02
0.03 0.03 0.04 0.04 0.04 0.04 0.05 0.05 0.03 0.03 0.03 0.04 0.06 0.07 0.07 0.07 0.05 0.03 0.01 0.01 0.01 0.01 0.02 0.03 0.04 0.07 0.10 0.12 0.13 0.12 0.11 0.10 0.08 0.07 0.05 0.04 0.03 0.02 0.02 0.02 0.02 0.02 0.02
0.02 0.02 0.03 0.03 0.03 0.03 0.03 0.04 0.04 0.04 0.04 0.04 0.06 0.08 0.09 0.09 0.06 0.04 0.02 0.02 0.01 0.01 0.01 0.03 0.04 0.06 0.08 0.09 0.08 0.09 0.10 0.10 0.10 0.09 0.07 0.05 0.04 0.03 0.02 0.02 0.02 0.02 0.02
0.02 0.02 0.01 0.02 0.03 0.03 0.03 0.04 0.04 0.05 0.05 0.05 0.06 0.07 0.09 0.11 0.09 0.05 0.03 0.02 0.02 0.02 0.02 0.02 0.03 0.05 0.06 0.07 0.08 0.08 0.09 0.10 0.10 0.09 0.07 0.06 0.06 0.05 0.04 0.03 0.02 0.02 0.02
0.03 0.02 0.01 0.01 0.02 0.03 0.03 0.03 0.04 0.05 0.05 0.05 0.06 0.07 0.07 0.07 0.08 0.07 0.04 0.03 0.03 0.03 0.02 0.03 0.03 0.04 0.05 0.06 0.07 0.07 0.07 0.08 0.08 0.07 0.07 0.06 0.06 0.06 0.06 0.04 0.03 0.03 0.03
0.02 0.02 0.01 0.01 0.01 0.02 0.02 0.03 0.04 0.05 0.07 0.07 0.06 0.06 0.06 0.05 0.05 0.06 0.06 0.04 0.04 0.04 0.04 0.03 0.04 0.04 0.05 0.05 0.06 0.06 0.06 0.05 0.06 0.06 0.06 0.06 0.06 0.07 0.07 0.06 0.05 0.04 0.03
0.01 0.01 0.01 0.01 0.01 0.01 0.01 0.02 0.04 0.06 0.07 0.07 0.07 0.06 0.06 0.05 0.04 0.03 0.04 0.05 0.05 0.05 0.04 0.04 0.04 0.04 0.04 0.05 0.05 0.06 0.05 0.05 0.05 0.05 0.05 0.05 0.05 0.06 0.06 0.06 0.05 0.04 0.03
0.01 0.01 0.01 0.01 0.01 0.01 0.01 0.01 0.02 0.03 0.07 0.09 0.10 0.09 0.08 0.07 0.05 0.04 0.03 0.03 0.04 0.04 0.04 0.04 0.04 0.04 0.04 0.04 0.04 0.05 0.05 0.05 0.04 0.05 0.05 0.04 0.05 0.05 0.05 0.05 0.05 0.05 0.05
0.01 0.01 0.01 0.01 0.01 0.01 0.01 0.01 0.01 0.02 0.03 0.05 0.10 0.12 0.11 0.09 0.07 0.05 0.04 0.04 0.03 0.03 0.03 0.03 0.03 0.03 0.03 0.04 0.05 0.05 0.04 0.04 0.05 0.05 0.06 0.05 0.04 0.04 0.05 0.05 0.05 0.05 0.05
0.04 0.04 0.03 0.03 0.02 0.02 0.01 0.01 0.01 0.01 0.01 0.02 0.04 0.08 0.11 0.12 0.11 0.08 0.06 0.05 0.06 0.05 0.04 0.03 0.03 0.03 0.02 0.03 0.04 0.05 0.05 0.04 0.03 0.04 0.04 0.04 0.03 0.02 0.03 0.04 0.04 0.04 0.04
0.04 0.04 0.06 0.07 0.06 0.05 0.04 0.03 0.03 0.02 0.02 0.02 0.02 0.04 0.07 0.09 0.10 0.11 0.08 0.07 0.07 0.07 0.05 0.03 0.03 0.02 0.02 0.02 0.03 0.03 0.03 0.04 0.03 0.02 0.02 0.02 0.02 0.02 0.02 0.02 0.02 0.02 0.03
0.03 0.03 0.03 0.03 0.03 0.03 0.03 0.03 0.03 0.03 0.03 0.03 0.03 0.04 0.05 0.06 0.07 0.09 0.09 0.08 0.08 0.08 0.07 0.04 0.03 0.02 0.02 0.03 0.03 0.03 0.03 0.04 0.03 0.02 0.02 0.01 0.01 0.01 0.01 0.01 0.01 0.02 0.02
0.01 0.01 0.01 0.02 0.02 0.02 0.02 0.02 0.03 0.03 0.03 0.04 0.04 0.05 0.07 0.08 0.08 0.08 0.08 0.08 0.09 0.09 0.09 0.06 0.05 0.04 0.04 0.04 0.04 0.03 0.03 0.03 0.03 0.03 0.02 0.02 0.01 0.01 0.01 0.01 0.01 0.01 0.02
0.00 0.01 0.01 0.01 0.01 0.01 0.02 0.02 0.03 0.03 0.04 0.04 0.05 0.07 0.07 0.08 0.08 0.08 0.08 0.08 0.08 0.08 0.08 0.08 0.07 0.06 0.06 0.06 0.05 0.05 0.04 0.03 0.02 0.02 0.02 0.02 0.02 0.01 0.01 0.01 0.01 0.01 0.01
0.00 0.01 0.01 0.01 0.01 0.01 0.01 0.02 0.04 0.05 0.05 0.05 0.06 0.07 0.07 0.07 0.07 0.06 0.06 0.06 0.06 0.06 0.06 0.06 0.06 0.06 0.07 0.07 0.08 0.07 0.06 0.05 0.04 0.03 0.02 0.02 0.02 0.02 0.01 0.01 0.01 0.01 0.01
0.01 0.01 0.01 0.01 0.01 0.01 0.01 0.02 0.03 0.04 0.05 0.06 0.06 0.07 0.07 0.06 0.06 0.05 0.04 0.04 0.06 0.07 0.06 0.06 0.06 0.06 0.06 0.06 0.07 0.08 0.07 0.06 0.05 0.03 0.03 0.03 0.02 0.02 0.02 0.01 0.01 0.01 0.01
0.02 0.01 0.01 0.01 0.01 0.01 0.01 0.02 0.02 0.03 0.04 0.05 0.05 0.06 0.05 0.05 0.05 0.06 0.05 0.04 0.04 0.05 0.06 0.07 0.07 0.07 0.06 0.06 0.06 0.07 0.07 0.06 0.05 0.03 0.03 0.03 0.02 0.02 0.02 0.02 0.01 0.01 0.01
0.03 0.02 0.01 0.01 0.01 0.01 0.01 0.01 0.02 0.03 0.03 0.04 0.04 0.05 0.05 0.05 0.05 0.06 0.06 0.06 0.05 0.05 0.05 0.05 0.06 0.06 0.05 0.05 0.05 0.06 0.07 0.07 0.06 0.04 0.03 0.03 0.02 0.02 0.02 0.02 0.03 0.02 0.02
0.02 0.02 0.02 0.01 0.01 0.01 0.01 0.01 0.02 0.02 0.02 0.03 0.04 0.05 0.05 0.05 0.05 0.06 0.06 0.06 0.06 0.05 0.05 0.04 0.04 0.04 0.03 0.03 0.04 0.05 0.05 0.07 0.06 0.05 0.05 0.05 0.03 0.02 0.02 0.02 0.03 0.03 0.02
0.02 0.02 0.02 0.02 0.01 0.01 0.01 0.01 0.02 0.02 0.02 0.03 0.04 0.05 0.06 0.05 0.05 0.06 0.07 0.08 0.07 0.06 0.06 0.05 0.03 0.03 0.03 0.03 0.04 0.05 0.05 0.05 0.06 0.05 0.05 0.06 0.04 0.03 0.02 0.02 0.03 0.04 0.03
0.02 0.02 0.02 0.02 0.01 0.01 0.01 0.02 0.02 0.02 0.02 0.02 0.03 0.05 0.06 0.05 0.06 0.07 0.07 0.08 0.07 0.07 0.06 0.06 0.06 0.05 0.05 0.05 0.05 0.05 0.05 0.05 0.05 0.04 0.04 0.05 0.04 0.04 0.04 0.03 0.03 0.03 0.04
0.02 0.02 0.02 0.02 0.01 0.01 0.01 0.02 0.02 0.02 0.02 0.02 0.03 0.04 0.05 0.05 0.06 0.06 0.06 0.06 0.06 0.06 0.05 0.05 0.05 0.05 0.05 0.05 0.05 0.05 0.04 0.04 0.04 0.04 0.03 0.04 0.04 0.04 0.04 0.03 0.02 0.02 0.03
MSLP
1028.93 1028.72 1028.50 1028.27 1028.06 1027.88 1027.72 1027.60 1027.50 1027.43 1027.38 1027.34 1027.31 1027.30 1027.28 1027.24 1027.17 1027.03 1026.81 1026.49 1026.05 1025.51 1024.90 1024.23 1023.57 1022.96 1022.45 1022.06 1021.81 1021.66 1021.62 1021.62 1021.63 1021.62 1021.57 1021.48 1021.34 1021.20 1021.05 1020.91 1020.79 1020.69 1020.59
1029.38 1029.10 1028.81 1028.52 1028.26 1028.06 1027.91 1027.81 1027.75 1027.72 1027.70 1027.69 1027.68 1027.68 1027.67 1027.66 1027.62 1027.53 1027.37 1027.10 1026.71 1026.20 1025.59 1024.91 1024.21 1023.54 1022.95 1022.48 1022.15 1021.94 1021.84 1021.81 1021.81 1021.80 1021.76 1021.69 1021.58 1021.44 1021.31 1021.18 1021.05 1020.94 1020.83
1029.70 1029.38 1029.02 1028.69 1028.41 1028.20 1028.07 1028.00 1027.99 1028.00 1028.02 1028.03 1028.04 1028.05 1028.05 1028.05 1028.03 1027.98 1027.87 1027.66 1027.34 1026.89 1026.32 1025.66 1024.96 1024.26 1023.63 1023.10 1022.70 1022.42 1022.26 1022.18 1022.15 1022.12 1022.08 1022.00 1021.90 1021.77 1021.64 1021.50 1021.37 1021.24 1021.11
1029.97 1029.62 1029.24 1028.88 1028.59 1028.38 1028.27 1028.23 1028.25 1028.30 1028.34 1028.37 1028.38 1028.37 1028.37 1028.36 1028.36 1028.34 1028.28 1028.14 1027.89 1027.52 1027.03 1026.43 1025.77 1025.09 1024.44 1023.87 1023.42 1023.08 1022.85 1022.71 1022.62 1022.55 1022.48 1022.39 1022.28 1022.15 1022.00 1021.86 1021.71 1021.57 1021.42
1030.26 1029.91 1029.52 1029.15 1028.85 1028.64 1028.54 1028.52 1028.55 1028.60 1028.65 1028.67 1028.66 1028.63 1028.60 1028.58 1028.57 1028.57 1028.54 1028.47 1028.31 1028.04 1027.64 1027.14 1026.54 1025.91 1025.29 1024.71 1024.22 1023.82 1023.53 1023.32 1023.16 1023.04 1022.92 1022.79 1022.66 1022.51 1022.36 1022.20 1022.04 1021.88 1021.71
1030.59 1030.25 1029.87 1029.50 1029.20 1028.99 1028.88 1028.86 1028.88 1028.92 1028.94 1028.93 1028.88 1028.80 1028.73 1028.67 1028.65 1028.65 1028.65 1028.64 1028.56 1028.39 1028.10 1027.71 1027.22 1026.66 1026.08 1025.52 1025.01 1024.57 1024.21 1023.92 1023.69 1023.49 1023.32 1023.15 1022.98 1022.82 1022.65 1022.49 1022.32 1022.15 1021.98
1030.94 1030.62 1030.27 1029.92 1029.62 1029.40 1029.27 1029.22 1029.21 1029.21 1029.19 1029.13 1029.03 1028.90 1028.77 1028.67 1028.62 1028.61 1028.63 1028.66 1028.65 1028.58 1028.40 1028.12 1027.74 1027.27 1026.75 1026.22 1025.70 1025.23 1024.81 1024.45 1024.14 1023.87 1023.63 1023.42 1023.22 1023.04 1022.86 1022.70 1022.54 1022.37 1022.20
1031.26 1030.99 1030.67 1030.34 1030.05 1029.82 1029.67 1029.58 1029.53 1029.48 1029.40 1029.29 1029.13 1028.95 1028.78 1028.63 1028.54 1028.52 1028.54 1028.60 1028.64 1028.64 1028.56 1028.38 1028.10 1027.72 1027.26 1026.77 1026.26 1025.76 1025.29 1024.86 1024.48 1024.15 1023.85 1023.60 1023.37 1023.18 1023.01 1022.85 1022.70 1022.55 1022.37
1031.52 1031.29 1031.00 1030.70 1030.42 1030.19 1030.02 1029.90 1029.80 1029.70 1029.58 1029.42 1029.23 1029.01 1028.80 1028.62 1028.50 1028.45 1028.47 1028.53 1028.61 1028.66 1028.64 1028.54 1028.34 1028.03 1027.64 1027.18 1026.68 1026.17 1025.66 1025.18 1024.73 1024.34 1024.00 1023.71 1023.47 1023.28 1023.12 1022.98 1022.85 1022.70 1022.53
1031.68 1031.49 1031.24 1030.97 1030.71 1030.48 1030.29 1030.14 1030.02 1029.89 1029.74 1029.56 1029.35 1029.12 1028.89 1028.69 1028.56 1028.49 1028.49 1028.54 1028.62 1028.69 1028.71 1028.66 1028.52 1028.27 1027.93 1027.50 1027.02 1026.49 1025.96 1025.43 1024.95 1024.51 1024.14 1023.84 1023.59 1023.41 1023.26 1023.14 1023.02 1022.88 1022.71
1031.74 1031.57 1031.36 1031.12 1030.88 1030.66 1030.47 1030.31 1030.18 1030.04 1029.89 1029.71 1029.51 1029.29 1029.07 1028.88 1028.73 1028.65 1028.63 1028.66 1028.73 1028.79 1028.83 1028.81 1028.70 1028.49 1028.19 1027.79 1027.32 1026.79 1026.25 1025.70 1025.19 1024.74 1024.35 1024.04 1023.80 1023.62 1023.49 1023.38 1023.27 1023.13 1022.94
1031.72 1031.57 1031.39 1031.18 1030.96 1030.75 1030.57 1030.41 1030.27 1030.15 1030.01 1029.86 1029.69 1029.50 1029.31 1029.14 1028.99 1028.90 1028.86 1028.87 1028.92 1028.97 1029.00 1028.99 1028.91 1028.73 1028.46 1028.09 1027.64 1027.14 1026.59 1026.05 1025.54 1025.07 1024.68 1024.37 1024.14 1023.97 1023.85 1023.74 1023.62 1023.47 1023.26
1031.67 1031.53 1031.36 1031.16 1030.96 1030.76 1030.58 1030.43 1030.31 1030.20 1030.09 1029.98 1029.85 1029.70 1029.55 1029.40 1029.28 1029.18 1029.13 1029.12 1029.14 1029.18 1029.20 1029.20 1029.13 1028.99 1028.75 1028.43 1028.02 1027.54 1027.02 1026.50 1026.00 1025.55 1025.17 1024.87 1024.65 1024.48 1024.36 1024.24 1024.10 1023.91 1023.66
1031.64 1031.49 1031.32 1031.13 1030.92 1030.72 1030.54 1030.39 1030.27 1030.17 1030.09 1030.01 1029.92 1029.82 1029.71 1029.59 1029.48 1029.39 1029.33 1029.30 1029.31 1029.34 1029.37 1029.38 1029.34 1029.23 1029.05 1028.78 1028.42 1028.00 1027.53 1027.04 1026.58 1026.16 1025.80 1025.51 1025.30 1025.13 1024.99 1024.85 1024.68 1024.45 1024.15
1031.66 1031.50 1031.30 1031.09 1030.87 1030.66 1030.46 1030.29 1030.16 1030.07 1029.99 1029.93 1029.87 1029.79 1029.71 1029.61 1029.51 1029.43 1029.37 1029.34 1029.35 1029.38 1029.42 1029.46 1029.47 1029.42 1029.30 1029.10 1028.81 1028.46 1028.06 1027.64 1027.22 1026.85 1026.52 1026.26 1026.05 1025.87 1025.72 1025.55 1025.33 1025.06 1024.71
1031.75 1031.55 1031.33 1031.09 1030.83 1030.58 1030.35 1030.15 1030.00 1029.88 1029.79 1029.73 1029.66 1029.60 1029.52 1029.43 1029.34 1029.26 1029.21 1029.18 1029.20 1029.25 1029.32 1029.40 1029.46 1029.48 1029.44 1029.33 1029.14 1028.87 1028.56 1028.21 1027.87 1027.54 1027.26 1027.02 1026.82 1026.64 1026.47 1026.26 1026.02 1025.70 1025.32
1031.90 1031.66 1031.40 1031.12 1030.82 1030.52 1030.24 1029.99 1029.78 1029.63 1029.50 1029.41 1029.32 1029.24 1029.15 1029.06 1028.96 1028.88 1028.83 1028.82 1028.85 1028.93 1029.04 1029.17 1029.30 1029.39 1029.44 1029.42 1029.33 1029.16 1028.94 1028.68 1028.42 1028.15 1027.92 1027.71 1027.53 1027.35 1027.17 1026.95 1026.67 1026.34 1025.94
1032.08 1031.81 1031.50 1031.17 1030.82 1030.46 1030.13 1029.82 1029.56 1029.35 1029.17 1029.03 1028.91 1028.79 1028.67 1028.56 1028.45 1028.36 1028.31 1028.30 1028.36 1028.46 1028.61 1028.79 1028.98 1029.14 1029.27 1029.34 1029.34 1029.27 1029.14 1028.98 1028.79 1028.61 1028.43 1028.26 1028.10 1027.94 1027.75 1027.53 1027.25 1026.92 1026.53
1032.26 1031.96 1031.62 1031.24 1030.83 1030.43 1030.03 1029.67 1029.35 1029.08 1028.85 1028.65 1028.47 1028.31 1028.15 1028.01 1027.88 1027.78 1027.72 1027.72 1027.78 1027.90 1028.08 1028.29 1028.52 1028.74 1028.93 1029.07 1029.15 1029.17 1029.13 1029.06 1028.95 1028.84 1028.72 1028.61 1028.48 1028.35 1028.18 1027.97 1027.71 1027.41 1027.06
1032.44 1032.10 1031.72 1031.30 1030.85 1030.40 1029.95 1029.54 1029.17 1028.84 1028.55 1028.29 1028.06 1027.85 1027.66 1027.48 1027.33 1027.21 1027.14 1027.13 1027.18 1027.30 1027.48 1027.71 1027.95 1028.20 1028.43 1028.62 1028.76 1028.85 1028.89 1028.90 1028.87 1028.83 1028.78 1028.72 1028.65 1028.55 1028.42 1028.25 1028.03 1027.77 1027.47
1032.58 1032.21 1031.79 1031.34 1030.85 1030.36 1029.88 1029.42 1029.00 1028.62 1028.28 1027.98 1027.70 1027.45 1027.21 1027.00 1026.82 1026.67 1026.59 1026.56 1026.60 1026.70 1026.86 1027.07 1027.30 1027.55 1027.78 1027.99 1028.17 1028.32 1028.42 1028.50 1028.55 1028.59 1028.61 1028.61 1028.59 1028.55 1028.46 1028.34 1028.18 1027.98 1027.77
1032.67 1032.27 1031.82 1031.33 1030.82 1030.29 1029.78 1029.28 1028.83 1028.40 1028.02 1027.67 1027.35 1027.06 1026.79 1026.55 1026.34 1026.17 1026.06 1026.00 1026.01 1026.08 1026.20 1026.37 1026.57 1026.79 1027.01 1027.22 1027.42 1027.60 1027.76 1027.90 1028.03 1028.14 1028.23 1028.31 1028.35 1028.36 1028.34 1028.28 1028.18 1028.06 1027.92
1032.70 1032.27 1031.79 1031.27 1030.72 1030.17 1029.62 1029.10 1028.61 1028.15 1027.72 1027.33 1026.97 1026.64 1026.34 1026.07 1025.83 1025.64 1025.50 1025.42 1025.38 1025.41 1025.48 1025.60 1025.75 1025.93 1026.12 1026.33 1026.53 1026.74 1026.95 1027.15 1027.35 1027.54 1027.70 1027.85 1027.96 1028.04 1028.08 1028.08 1028.05 1028.01 1027.95
1032.65 1032.19 1031.67 1031.12 1030.55 1029.97 1029.39 1028.83 1028.30 1027.80 1027.34 1026.90 1026.50 1026.14 1025.80 1025.50 1025.24 1025.03 1024.86 1024.74 1024.67 1024.65 1024.67 1024.74 1024.83 1024.97 1025.13 1025.32 1025.54 1025.77 1026.03 1026.29 1026.56 1026.83 1027.08 1027.30 1027.48 1027.63 1027.73 1027.80 1027.83 1027.85 1027.87
1032.52 1032.02 1031.47 1030.89 1030.29 1029.68 1029.07 1028.48 1027.90 1027.36 1026.84 1026.36 1025.92 1025.51 1025.14 1024.82 1024.54 1024.30 1024.11 1023.96 1023.85 1023.79 1023.76 1023.78 1023.83 1023.92 1024.06 1024.25 1024.47 1024.74 1025.05 1025.38 1025.73 1026.08 1026.40 1026.70 1026.96 1027.17 1027.34 1027.46 1027.56 1027.64 1027.72
1032.30 1031.77 1031.19 1030.59 1029.96 1029.32 1028.68 1028.05 1027.43 1026.84 1026.27 1025.74 1025.25 1024.80 1024.39 1024.04 1023.73 1023.47 1023.26 1023.08 1022.94 1022.84 1022.78 1022.75 1022.77 1022.84 1022.96 1023.15 1023.40 1023.70 1024.06 1024.46 1024.89 1025.31 1025.72 1026.09 1026.42 1026.70 1026.93 1027.11 1027.26 1027.39 1027.52
Thickness
5614 5615 5617 5617 5618 5619 5621 5622 5623 5624 5626 5627 5629 5630 5632 5633 5634 5635 5635 5635 5637 5638 5640 5641 5643 5644 5644 5644 5644 5644 5644 5644 5645 5645 5646 5646 5646 5646 5645 5645 5645 5644 5644
5605 5606 5606 5607 5608 5609 5610 5612 5613 5614 5616 5617 5619 5620 5622 5624 5625 5626 5626 5627 5628 5629 5631 5633 5634 5636 5636 5635 5635 5636 5635 5636 5636 5637 5637 5637 5637 5637 5637 5637 5637 5636 5636
5595 5596 5597 5597 5597 5598 5600 5601 5602 5604 5605 5607 5608 5610 5612 5614 5615 5616 5616 5618 5618 5619 5621 5623 5624 5626 5626 5626 5626 5626 5626 5627 5628 5628 5628 5628 5628 5629 5628 5628 5628 5628 5628
5584 5585 5586 5586 5586 5587 5589 5590 5591 5593 5594 5596 5598 5600 5601 5603 5605 5605 5606 5607 5608 5610 5611 5612 5613 5615 5616 5616 5616 5616 5617 5618 5618 5618 5619 5619 5619 5620 5620 5620 5619 5619 5619
5572 5573 5574 5574 5575 5576 5577 5578 5580 5582 5583 5584 5586 5588 5590 5592 5593 5594 5595 5596 5597 5598 5600 5601 5602 5603 5605 5606 5606 5606 5607 5608 5609 5609 5609 5609 5610 5610 5611 5611 5611 5611 5611
5560 5561 5562 5562 5563 5564 5565 5566 5567 5569 5571 5572 5574 5576 5578 5580 5582 5583 5584 5585 5586 5587 5588 5590 5591 5592 5593 5594 5596 5596 5597 5598 5599 5599 5599 5600 5600 5600 5601 5602 5602 5602 5603
5547 5548 5549 5549 5550 5552 5553 5554 5555 5556 5557 5560 5563 5565 5567 5569 5571 5571 5572 5573 5574 5575 5576 5577 5578 5580 5581 5583 5584 5585 5586 5587 5588 5589 5589 5590 5590 5591 5591 5592 5592 5593 5594
5534 5535 5536 5536 5537 5539 5540 5541 5543 5544 5545 5547 5551 5555 5559 5560 5560 5560 5561 5561 5562 5563 5564 5565 5566 5567 5568 5570 5571 5572 5574 5575 5577 5577 5578 5579 5580 5580 5580 5581 5582 5583 5583
5521 5522 5523 5524 5525 5526 5528 5529 5530 5532 5534 5534 5537 5542 5547 5553 5550 5550 5550 5550 5550 5551 5551 5552 5553 5554 5555 5557 5558 5559 5560 5562 5563 5565 5566 5567 5568 5569 5570 5570 5571 5572 5572
5509 5510 5510 5511 5512 5513 5515 5516 5517 5520 5522 5524 5524 5526 5529 5534 5538 5540 5539 5539 5538 5539 5539 5539 5540 5541 5542 5543 5544 5545 5547 5548 5550 5551 5553 5555 5556 5557 5558 5558 5559 5560 5561
5498 5498 5498 5498 5500 5501 5503 5504 5504 5506 5509 5511 5513 5514 5515 5517 5522 5528 5530 5528 5527 5527 5526 5527 5528 5529 5529 5530 5531 5532 5533 5535 5537 5538 5540 5542 5543 5544 5545 5546 5547 5548 5549
5486 5486 5486 5487 5488 5489 5491 5492 5492 5494 5496 5498 5501 5503 5504 5506 5509 5513 5516 5517 5516 5516 5514 5514 5515 5516 5516 5517 5518 5519 5520 5521 5523 5525 5526 5528 5529 5531 5532 5532 5534 5535 5536
5476 5475 5474 5475 5476 5477 5478 5479 5480 5482 5484 5486 5488 5489 5492 5494 5496 5498 5500 5500 5501 5502 5501 5502 5502 5503 5503 5504 5505 5505 5506 5507 5510 5512 5513 5514 5515 5517 5518 5519 5520 5521 5523
5465 5464 5463 5463 5464 5464 5465 5466 5467 5469 5471 5473 5475 5476 5477 5480 5481 5483 5485 5485 5486 5488 5490 5492 5490 5489 5489 5489 5490 5491 5493 5494 5496 5498 5500 5500 5502 5503 5504 5505 5507 5508 5509
5452 5452 5452 5452 5452 5452 5452 5453 5455 5456 5458 5460 5461 5462 5464 5466 5467 5469 5470 5472 5473 5476 5480 5480 5477 5476 5475 5475 5476 5477 5479 5481 5482 5484 5485 5487 5488 5489 5491 5492 5494 5495 5496
5440 5440 5441 5440 5440 5440 5440 5441 5443 5443 5445 5447 5448 5449 5451 5452 5453 5455 5456 5456 5457 5460 5464 5466 5463 5462 5461 5461 5462 5463 5465 5467 5469 5470 5471 5473 5475 5476 5478 5479 5481 5483 5484
5428 5428 5428 5429 5429 5429 5429 5430 5431 5431 5432 5433 5434 5436 5437 5438 5439 5440 5441 5442 5443 5443 5446 5449 5447 5446 5446 5447 5448 5449 5451 5453 5455 5456 5458 5460 5461 5463 5464 5466 5468 5470 5471
5415 5415 5416 5416 5416 5416 5417 5417 5418 5418 5419 5421 5422 5422 5424 5424 5426 5426 5427 5427 5428 5429 5430 5432 5432 5431 5432 5432 5434 5435 5436 5438 5440 5442 5444 5446 5447 5449 5451 5452 5454 5456 5458
5402 5402 5402 5403 5403 5403 5404 5404 5405 5406 5406 5408 5409 5409 5410 5410 5412 5412 5413 5413 5414 5414 5414 5416 5418 5418 5417 5418 5419 5421 5422 5423 5425 5427 5429 5431 5433 5435 5437 5438 5440 5441 5444
5388 5388 5389 5389 5389 5389 5390 5390 5391 5393 5393 5394 5395 5395 5396 5396 5398 5398 5399 5399 5399 5398 5399 5400 5402 5403 5403 5402 5404 5406 5408 5409 5411 5412 5414 5416 5418 5420 5422 5424 5426 5428 5430
5375 5374 5374 5375 5375 5375 5376 5377 5377 5379 5380 5381 5382 5381 5382 5382 5383 5384 5385 5385 5385 5385 5385 5387 5388 5388 5389 5388 5390 5392 5392 5394 5396 5397 5399 5402 5403 5406 5407 5410 5411 5413 5415
5360 5360 5360 5361 5361 5361 5362 5362 5363 5364 5366 5367 5368 5368 5368 5368 5369 5370 5371 5371 5372 5372 5372 5373 5375 5376 5377 5376 5376 5376 5376 5378 5381 5383 5383 5386 5386 5390 5393 5395 5397 5399 5401
5346 5346 5346 5346 5347 5347 5347 5347 5348 5349 5351 5353 5353 5354 5355 5355 5354 5355 5357 5357 5358 5359 5360 5361 5362 5365 5365 5364 5363 5362 5362 5364 5367 5367 5365 5370 5371 5374 5377 5380 5382 5384 5386
5331 5332 5332 5332 5332 5333 5333 5333 5334 5335 5337 5339 5339 5340 5341 5342 5341 5341 5342 5343 5344 5345 5346 5347 5349 5351 5350 5348 5348 5348 5348 5348 5349 5349 5348 5353 5357 5359 5362 5364 5367 5369 5370
5317 5317 5317 5318 5318 5319 5318 5319 5320 5321 5324 5325 5326 5327 5327 5328 5328 5328 5328 5330 5331 5332 5332 5333 5335 5335 5335 5334 5333 5331 5331 5331 5335 5336 5333 5335 5340 5342 5345 5349 5351 5353 5354
5302 5302 5302 5303 5304 5305 5305 5305 5306 5308 5310 5312 5313 5313 5314 5314 5314 5314 5314 5316 5317 5319 5318 5319 5319 5320 5319 5319 5318 5317 5318 5318 5319 5321 5320 5318 5322 5322 5328 5333 5335 5336 5338